TimeEST,TemperatureF,Dew PointF,Humidity,Sea Level PressureIn,VisibilityMPH,Wind Direction,Wind SpeedMPH,Gust SpeedMPH,PrecipitationIn,Events,Conditions,WindDirDegrees,DateUTC
12:53 AM,46.0,42.1,86,29.94,5.0,NW,8.1,-,0.02,Rain,Light Rain,320,2012-12-29 05:53:00
1:11 AM,44.6,42.8,93,29.91,5.0,North,8.1,-,0.06,Rain,Light Rain,10,2012-12-29 06:11:00
1:53 AM,45.0,43.0,93,29.85,7.0,East,3.5,-,0.10,Rain,Light Rain,90,2012-12-29 06:53:00
2:32 AM,44.6,42.8,93,29.85,1.8,North,5.8,-,0.07,Rain,Heavy Rain,10,2012-12-29 07:32:00
2:45 AM,44.6,44.6,100,29.83,2.5,North,6.9,-,0.17,Rain,Rain,10,2012-12-29 07:45:00
2:53 AM,45.0,44.1,97,29.83,4.0,North,9.2,-,0.18,Rain,Light Rain,360,2012-12-29 07:53:00
3:00 AM,44.6,42.8,93,29.83,2.5,North,8.1,-,0.00,Rain,Heavy Rain,350,2012-12-29 08:00:00
3:10 AM,44.6,42.8,93,29.81,1.5,NNE,8.1,-,0.10,Rain,Heavy Rain,20,2012-12-29 08:10:00
3:23 AM,44.6,42.8,93,29.84,2.5,NNW,11.5,-,0.15,Rain,Rain,340,2012-12-29 08:23:00
3:30 AM,44.6,42.8,93,29.84,2.5,NNW,15.0,-,0.17,Rain,Rain,340,2012-12-29 08:30:00
3:53 AM,45.0,43.0,93,29.81,5.0,North,9.2,-,0.24,Rain,Light Rain,360,2012-12-29 08:53:00
4:23 AM,44.6,42.8,93,29.82,2.0,North,9.2,-,0.10,Rain,Heavy Rain,350,2012-12-29 09:23:00
4:40 AM,44.6,42.8,93,29.79,4.0,NE,5.8,-,0.16,Rain,Light Rain,50,2012-12-29 09:40:00
4:53 AM,44.1,43.0,96,29.79,2.5,East,4.6,-,0.20,Rain,Heavy Rain,100,2012-12-29 09:53:00
5:14 AM,44.6,42.8,93,29.77,5.0,ESE,3.5,-,0.05,Rain,Light Rain,120,2012-12-29 10:14:00
5:53 AM,45.0,44.1,97,29.76,9.0,Calm,Calm,-,0.05,,Overcast,0,2012-12-29 10:53:00
6:53 AM,44.6,44.6,100,29.81,10.0,WNW,8.1,-,N/A,,Overcast,300,2012-12-29 11:53:00
7:53 AM,45.0,44.1,97,29.83,3.0,NW,6.9,-,N/A,,Overcast,310,2012-12-29 12:53:00
8:53 AM,45.0,43.0,93,29.86,10.0,WNW,5.8,-,N/A,,Overcast,300,2012-12-29 13:53:00
9:53 AM,46.0,43.0,89,29.88,10.0,WNW,8.1,-,N/A,,Overcast,300,2012-12-29 14:53:00
10:34 AM,48.2,44.6,87,29.89,10.0,West,10.4,-,N/A,,Mostly Cloudy,280,2012-12-29 15:34:00
10:44 AM,48.2,44.6,87,29.89,10.0,West,12.7,-,N/A,,Mostly Cloudy,280,2012-12-29 15:44:00
10:53 AM,48.9,44.1,83,29.89,10.0,WNW,15.0,20.7,N/A,,Mostly Cloudy,300,2012-12-29 15:53:00
11:53 AM,48.0,39.9,74,29.89,10.0,WNW,18.4,23.0,N/A,,Overcast,290,2012-12-29 16:53:00
12:53 PM,50.0,39.9,68,29.88,10.0,West,17.3,27.6,N/A,,Overcast,280,2012-12-29 17:53:00
1:53 PM,51.1,39.9,66,29.87,10.0,West,15.0,23.0,N/A,,Overcast,280,2012-12-29 18:53:00
2:02 PM,50.0,39.2,66,29.87,10.0,West,15.0,26.5,N/A,,Overcast,270,2012-12-29 19:02:00
2:26 PM,50.0,39.2,66,29.88,10.0,West,17.3,-,N/A,,Overcast,280,2012-12-29 19:26:00
2:36 PM,50.0,37.4,62,29.87,10.0,WNW,18.4,25.3,N/A,,Overcast,290,2012-12-29 19:36:00
2:53 PM,50.0,39.0,66,29.88,10.0,WNW,17.3,23.0,N/A,,Overcast,290,2012-12-29 19:53:00
3:53 PM,48.0,36.0,63,29.91,10.0,WNW,13.8,23.0,N/A,,Overcast,300,2012-12-29 20:53:00
4:53 PM,46.9,35.1,63,29.94,10.0,West,13.8,25.3,N/A,,Overcast,280,2012-12-29 21:53:00
5:53 PM,46.0,34.0,63,29.96,10.0,West,16.1,21.9,N/A,,Overcast,280,2012-12-29 22:53:00
6:53 PM,44.1,30.0,58,30.01,10.0,West,20.7,33.4,N/A,,Overcast,280,2012-12-29 23:53:00
7:53 PM,42.8,30.2,61,30.04,10.0,West,17.3,26.5,N/A,,Mostly Cloudy,280,2012-12-30 00:53:00
8:53 PM,41.0,30.9,67,30.06,10.0,WNW,15.0,25.3,N/A,,Partly Cloudy,290,2012-12-30 01:53:00
9:53 PM,39.9,30.9,70,30.08,10.0,West,15.0,23.0,N/A,,Clear,270,2012-12-30 02:53:00
10:53 PM,39.0,28.9,67,30.12,10.0,WNW,15.0,-,N/A,,Clear,290,2012-12-30 03:53:00
11:53 PM,37.9,28.0,68,30.13,10.0,WNW,12.7,20.7,N/A,,Clear,290,2012-12-30 04:53:00